Regional Weather Roundup
Issued by NWS Kansas City/Pleasant Hill, MO

Home | Current Version | Previous Version | Graphics & Text | Print | Product List | Glossary Off
Versions: 1 2 3 4 5 6 7 8 9 10 11 12 13 14 15 16 17 18 19 20 21 22 23 24 25 26 27 28 29 30 31 32 33 34 35 36 37 38 39 40 41 42 43 44 45 46 47 48 49 50

000
ASUS43 KEAX 301611
RWREAX

WEATHER ROUNDUP FOR EASTERN KANSAS AND NORTHWEST MISSOURI
NATIONAL WEATHER SERVICE KANSAS CITY/PLEASANT HILL MO
1000 AM CST FRI JAN 30 2015

KSZ040-057-103>105-MOZ028-029-037-043-301700-
...KANSAS CITY METROPOLITAN AREA...

CITY           SKY/WX    TMP DP  RH WIND       PRES   REMARKS
K.C. INTL      CLOUDY    26  21  81 E5        30.55R WCI  20
K.C. DOWNTOWN  SUNNY     29  22  75 E6        30.56S WCI  23
LEES SUMMIT    FAIR      28  22  78 CALM      30.55R
OLATHE - IXD   MOSUNNY   29  22  75 CALM      30.56R
OLATHE - OJC   MOSUNNY   28  21  75 CALM      30.54S
LAWRENCE       MOSUNNY   27  23  85 CALM      30.57S

$$

MOZ001>008-011>017-020>025-030>033-038>040-044>046-053-054-301700-
...NORTHERN AND CENTRAL MISSOURI...

CITY           SKY/WX    TMP DP  RH WIND       PRES   REMARKS
ST. JOSEPH     MOSUNNY   26  21  81 CALM      30.58R
MOSBY          SUNNY     28  23  80 CALM      30.57S
WARRENSBURG    MOSUNNY   28  23  80 NE6       30.56R WCI  22
WHITEMAN AFB   MOSUNNY   28  22  77 E7        30.54S WCI  21
CLINTON        MOSUNNY   32  27  80 E5        30.56S WCI  27
SEDALIA        SUNNY     29  21  72 E9        30.55F WCI  20
WARSAW         NOT AVBL
MARSHALL       SUNNY     28  23  80 E8        30.57S WCI  20
CHILLICOTHE      N/A     27  19  72 E5        30.58S WCI  22
MOBERLY        SUNNY     28  19  69 NE6       30.57R WCI  22
KIRKSVILLE     SUNNY     25  18  74 E6        30.56R WCI  18

$$

MOZ041-047>049-056>058-063>065-088>090-097-301700-
...EASTERN AND SOUTHERN MISSOURI...

CITY           SKY/WX    TMP DP  RH WIND       PRES   REMARKS
ST. LOUIS INTL MOSUNNY   32  17  54 NE6       30.56S WCI  26
SPIRIT OF STL  MOSUNNY   31  18  58 E5        30.56S WCI  26
COLUMBIA       SUNNY     28  20  71 E7        30.55S WCI  21
JEFFERSON CITY SUNNY     29  19  66 NE7       30.57S WCI  22
MEXICO         SUNNY     30  25  80 NE8       30.56R WCI  23
HANNIBAL       SUNNY     32  14  47 NE6       30.56R WCI  26
ROLLA          MOSUNNY   29  21  72 NE5       30.51S WCI  24
LEBANON        SUNNY     32  23  69 NE6       30.52S WCI  26
OSAGE BEACH    MOSUNNY   30  21  69 NE7       30.54F WCI  23
SPRINGFIELD    MOSUNNY   31  24  75 NE9       30.51S WCI  23
BRANSON        PTSUNNY   36  27  69 E9        30.52S WCI  29
NEVADA         PTSUNNY   32  25  74 E7        30.56S WCI  26
JOPLIN         PTSUNNY   31  26  82 NE6       30.55R WCI  25
WEST PLAINS    SUNNY     33  22  63 N6        30.52R WCI  28

$$

IAZ060-094-KSZ022-034>040-054-083-096-NEZ052-066-093-301700-
...KANSAS...SOUTHEAST NEBRASKA AND IOWA...

CITY           SKY/WX    TMP DP  RH WIND       PRES   REMARKS
TOPEKA         MOSUNNY   27  23  85 CALM      30.57F
MANHATTAN      PTSUNNY   25  23  92 CALM      30.55S
EMPORIA        PTSUNNY   28  25  88 CALM      30.55R
CHANUTE        PTSUNNY   31  27  85 VRB3      30.56R
WICHITA        CLOUDY    34  27  75 S7        30.54R WCI  28
OMAHA          MOSUNNY   24  18  77 S8        30.55S WCI  15
LINCOLN        PTSUNNY   24  21  88 S3        30.53S FOG
FALLS CITY     SUNNY     25  21  85 SE3       30.55S
LAMONI         SUNNY     22  17  81 E3        30.54S
DES MOINES     MOSUNNY   22  13  68 CALM      30.56S

$$



USA.gov is the U.S. government's official web portal to all federal, state and local government web resources and services.